This is the latest recevied weather packets stored in our database for station/object SP3VBV-2. If no packets are shown the sender has not sent any weather packets the latest 10 day(s).
| Time | Temp. | Humidity | Pressure | Rain* | Wind** | Luminosity | Snow |
|---|---|---|---|---|---|---|---|
| 1777822320 | 25° C | 30% | 1013 hPa | - | - | - | - |
| 1777821721 | 25° C | 30% | 1013.1 hPa | - | - | - | - |
| 1777821120 | 25° C | 29% | 1013.2 hPa | - | - | - | - |
| 1777820528 | 25.56° C | 29% | 1013.3 hPa | - | - | - | - |
| 1777819920 | 25.56° C | 28% | 1013.3 hPa | - | - | - | - |
| 1777819320 | 25.56° C | 29% | 1013.4 hPa | - | - | - | - |
| 1777818721 | 25.56° C | 29% | 1013.5 hPa | - | - | - | - |
| 1777818126 | 25.56° C | 28% | 1013.7 hPa | - | - | - | - |
| 1777817520 | 25.56° C | 27% | 1013.6 hPa | - | - | - | - |
| 1777816938 | 25.56° C | 27% | 1013.8 hPa | - | - | - | - |
| 1777816322 | 25.56° C | 28% | 1014 hPa | - | - | - | - |
| 1777815722 | 25.56° C | 28% | 1014.2 hPa | - | - | - | - |
| 1777815120 | 25° C | 26% | 1014.4 hPa | - | - | - | - |
| 1777814521 | 25° C | 26% | 1014.6 hPa | - | - | - | - |
| 1777813921 | 25° C | 28% | 1014.7 hPa | - | - | - | - |
| 1777813320 | 25° C | 27% | 1014.7 hPa | - | - | - | - |
| 1777812721 | 25° C | 28% | 1014.8 hPa | - | - | - | - |
| 1777812120 | 25° C | 29% | 1014.8 hPa | - | - | - | - |
| 1777811522 | 25° C | 26% | 1015 hPa | - | - | - | - |
| 1777810920 | 24.44° C | 27% | 1015 hPa | - | - | - | - |
| 1777810320 | 24.44° C | 30% | 1015.1 hPa | - | - | - | - |
| 1777809720 | 25° C | 31% | 1015.2 hPa | - | - | - | - |
| 1777809120 | 24.44° C | 29% | 1015.3 hPa | - | - | - | - |
| 1777808520 | 23.89° C | 30% | 1015.3 hPa | - | - | - | - |
| 1777807920 | 23.89° C | 30% | 1015.5 hPa | - | - | - | - |
* Rain since midnight (hover to see other rain measurements)
** Current wind speed in m/s (hover to see current wind gust speed)